CZ-6A DEB

Satellite information

Favourite Embed

Satellite Type and Status

DEBRISIN ORBIT

Key statistics

Satellite CZ-6A DEB at a glance.

Uptime

1030

Days in orbit

Revolutions

≈ 14.9

Per day

Orbit

SSO

Sun Synchronous Orbit

Inclination

98.8

Latest

Satellite identification and parameters

Extended collection of information and parameters for CZ-6A DEB.

Object identification

Identified? True

Debris? True

Object name: CZ-6A DEB

International designator: 2022-151TQ

Object number (NORAD): 54975

Object ID (CCSDS): 54975

Country: PEOPLES REPUBLIC OF CHINA (PRC)

Current information (Y/N): Y

RCS size: SMALL

Orbital parameters

Period: 96.622 minutes

Inclination: 98.8233 deg

SMA: 6975.007 km

Apoapsis: 653.778 km

Periapsis: 539.966 km

RAAN: 340.6241 deg

Eccentricy: 0.00815856

Argument of periapsis: 41.1015 deg

Mean anomaly: 319.6307 deg

Mean motion: 14.90341544 rev/day

Mean motion (dot): 0.00041836 rev/day2

B* drag term: 0.0040239443 1/REarth

Two-line elements (TLE)

Creation date: Sept. 5, 2025, 10:27 a.m.

Reference frame: TEME

Reference center: EARTH

Epoch: Sept. 5, 2025, 5:55 a.m. UTC

TLE line 0: 0 CZ-6A DEB

TLE line 1: 1 54975U 22151TQ 25248.24687646 .00041836 00000-0 40239-2 0 9997

TLE line 2: 2 54975 98.8233 340.6241 0081586 41.1015 319.6307 14.90341544149306

Live tracking on map

Real-time ground track for satellite CZ-6A DEB.

In-orbit conjunctions

A list of the most updated potential collisions computed for object CZ-6A DEB.

Target Orbit TCA Probability of collision Miss distance Type
FENGYUN 1C DEB SSO 2024-11-11 12:23:47 0.0002237819 324.0 (m) DEBRIS
HELIOS 1B SSO 2024-09-28 02:57:28 0.0001723122 569.0 (m) PAYLOAD

Associated space launch

Chinese satellite reported for atmospheric/ocean/environmental/spatial parameter research purposes, details TBD.

CZ-6A DEB was lifted into orbit during the mission ‘Long March 6A | Yunhai 3’, on board a Long March 6A space rocket.

The launch took place on Nov. 11, 2022, 10:52 p.m. from Launch Complex 9A.

For more information about the launch, click the button.

Launch to space Long March 6A | Yunhai 3
Long March 6A | Yunhai 3

Agency: N/A

Status: Launch Successful

Launch date: Nov. 11, 2022, 10:52 p.m. UTC

Rocket: Long March 6A

Launch pad: Launch Complex 9A

Location: Taiyuan Satellite Launch Center, People's Republic of China

...

Latest news about this satellite

There are no fresh news available about this satellite. Check back as we update our databases every day.


Newsletter sign-up

Weekly statistics, charts and insights to help you stay on top of the space industry.